www.pogodaiklimat.ru

Погода и климат >> Архив погоды >> Индия >> Западная Бенгалия >> Даймонд Харбор


ПОГОДА в Даймонд Харбор

  • Прогноз погоды в Даймонд Харбор
  • Монитор погоды в Даймонд Харбор

АРХИВ ПОГОДЫ в Даймонд Харбор

Время (UTC), дата Ветер
(напр.,м/с)
 
Видим.   Явления Облачность Т
(С)
Тd
(С)
f
(%)
Тe
(С)
Тes
(С)
Комфортность P
(гПа)
Po
(гПа)
Тmin
(С)
Tmax
(С)
R
(мм)
R24
(мм)
S
(см)
00 16.09 штиль 0 4000 м 4/3 1000 м
[Sc diur, vesp Ac trans]
+28.6 +27.8 95 +47 +47 опасность
перегрева
1005.0 1004.2
03 16.09 штиль 0 4000 м 6/4 600 м
[Sc diur, vesp Ac trans]
+30.8 +28.3 87 +52 +58 опасность
перегрева
1006.3 1005.5 +28.0
06 16.09 Ю 0 4000 м 4/3 600 м
[Sc diur, vesp Ac trans]
+33.8 +28.7 75 +57 +73 опасность
перегрева
1005.8 1005.0
09 16.09 ЮВ 0 4000 м 8/5 600 м
[Sc diur, vesp Ac trans]
+34.2 +29.3 76 +59 +63 опасность
перегрева
1003.2 1002.4
12 16.09 ЮВ 0 4000 м 6/5 600 м
[Sc diur, vesp Ac trans]
+30.6 +28.4 88 +52 +52 опасность
перегрева
1002.0 1001.2 +35.2
15 16.09 Ю 0 4000 м 4/3 600 м
[Sc diur, vesp Ac trans]
+30.0 +27.8 88 +49 +49 опасность
перегрева
1005.5 1004.7
18 16.09 Ю 0 4000 м 6/5 600 м
[Sc diur, vesp Ac trans]
+29.2 +27.5 91 +47 +47 опасность
перегрева
1005.9 1005.1
21 16.09 Ю 0 4000 м 6/4 600 м
[Sc diur, vesp Ac trans]
+28.6 +27.5 94 +46 +46 опасность
перегрева
1004.5 1003.7
00 17.09 штиль 0 4000 м 4/3 1000 м
[Sc diur, vesp Ac trans]
+28.0 +27.2 95 +44 +44 опасность
перегрева
1005.8 1005.0
03 17.09 штиль 0 4000 м 5/4 600 м
[Sc diur, vesp Ac trans]
+30.2 +27.2 84 +48 +55 опасность
перегрева
1008.1 1007.3 +27.7
06 17.09 Ю 0 4000 м 4/3 600 м
[Sc diur, vesp Ac trans]
+33.8 +28.1 72 +55 +71 опасность
перегрева
1007.5 1006.7
09 17.09 Ю 0 4000 м 5/3 600 м
[Sc diur, vesp Ac trans]
+35.4 +28.1 66 +56 +64 опасность
перегрева
1005.1 1004.3
12 17.09 Ю 0 4000 м 5/3 600 м
[Sc diur, vesp Ac trans]
+31.6 +27.5 79 +51 +51 опасность
перегрева
1004.2 1003.4 +36.2
15 17.09 Ю 0 4000 м 3/3 1000 м
[Sc diur, vesp]
+30.0 +28.1 90 +50 +50 опасность
перегрева
1007.5 1006.7
21 17.09 Ю 0 4000 м 4/3 1000 м
[Sc diur, vesp Ac trans]
+28.4 +27.3 94 +45 +45 опасность
перегрева
1006.1 1005.3
00 18.09 штиль 0 4000 м 3/3 1000 м
[Sc diur, vesp]
+28.0 +27.4 97 +45 +45 опасность
перегрева
1008.1 1007.3
03 18.09 С 0 4000 м 6/3 1000 м
[Sc diur, vesp Ac trans]
+30.4 +27.9 87 +50 +57 опасность
перегрева
1009.9 1009.1 +27.4
06 18.09 Ю 0 4000 м 8/5 1000 м
[Sc diur, vesp Ac trans]
+34.4 +28.4 71 +56 +64 опасность
перегрева
1009.8 1009.0
09 18.09 Ю 0 4000 м 8/5 600 м
[Cb calv Ac trans]
+34.8 +29.2 73 +59 +64 опасность
перегрева
1007.3 1006.5
12 18.09 штиль 0 4000 м 9/6 600 м
[Frnb Ac trans]
+31.4 +28.1 83 +52 +52 опасность
перегрева
1007.7 1006.9 +35.2
15 18.09 штиль 0 4000 м 4/4 1000 м
[Sc]
+30.2 +28.3 90 +51 +51 опасность
перегрева
1010.0 1009.2
18 18.09 штиль 0 4000 м 4/4 1000 м
[Sc]
+29.4 +28.0 92 +49 +49 опасность
перегрева
1010.2 1009.4
21 18.09 штиль 0 4000 м 5/4 1000 м
[Sc Ac trans]
+28.8 +28.0 95 +47 +47 опасность
перегрева
1008.4 1007.6
00 19.09 штиль 0 4000 м 3/3 1000 м
[Sc]
+28.0 +27.4 97 +45 +45 опасность
перегрева
1009.8 1009.0
03 19.09 штиль 0 4000 м 6/5 600 м
[Frnb Ac trans]
+30.0 +28.1 90 +50 +55 опасность
перегрева
1011.2 1010.4 +27.6
06 19.09 штиль 0 4000 м 5/4 1000 м
[Sc diur, vesp Ac trans]
+33.2 +28.9 78 +56 +70 опасность
перегрева
1010.1 1009.3
09 19.09 Ю 0 4000 м 3/3 1000 м
[Sc diur, vesp]
+35.0 +28.2 68 +56 +66 опасность
перегрева
1007.6 1006.8
12 19.09 Ю 0 4000 м 3/3 1000 м
[Sc diur, vesp]
+32.0 +27.9 79 +52 +52 опасность
перегрева
1007.7 1006.9 +36.0
15 19.09 Ю 0 4000 м 4/3 1000 м
[Sc diur, vesp Ac trans]
+30.4 +28.2 88 +51 +51 опасность
перегрева
1010.1 1009.3
18 19.09 штиль 0 4000 м 5/4 1000 м
[Sc diur, vesp Ac trans]
+29.4 +27.8 91 +48 +48 опасность
перегрева
1010.5 1009.7
21 19.09 штиль 0 4000 м 5/3 1000 м
[Sc diur, vesp Ac trans]
+28.4 +27.0 92 +45 +45 опасность
перегрева
1009.0 1008.2
00 20.09 штиль 0 4000 м 8/6 600 м
[Sc Ac trans]
+28.2 +27.4 95 +45 +45 опасность
перегрева
1009.1 1008.3
03 20.09 штиль 0 4000 м 8/5 600 м
[Sc Ac trans]
+30.8 +27.8 84 +50 +54 опасность
перегрева
1010.6 1009.8 +28.0
06 20.09 Ю 0 4000 м 4/4 1000 м
[Sc diur, vesp]
+33.6 +27.3 70 +53 +68 опасность
перегрева
1010.0 1009.2
09 20.09 штиль 0 4000 м 3/3 1000 м
[Sc]
+35.4 +27.8 65 +56 +65 опасность
перегрева
1006.6 1005.8
12 20.09 штиль 0 4000 м 6/5 600 м
[Sc diur, vesp Ac trans]
+32.2 +28.7 82 +55 +55 опасность
перегрева
1005.9 1005.1 +36.4
15 20.09 штиль 0 4000 м 3/3 1000 м
[Sc]
+30.6 +27.9 86 +51 +51 опасность
перегрева
1008.6 1007.8
18 20.09 штиль 0 4000 м 4/3 1000 м
[Sc Ac trans]
+29.4 +27.8 91 +48 +48 опасность
перегрева
1008.4 1007.6
21 20.09 штиль 0 4000 м 3/3 1000 м
[Sc]
+28.6 +27.2 92 +45 +45 опасность
перегрева
1007.3 1006.5
00 21.09 штиль 0 4000 м 6/5 600 м
[Sc diur, vesp Ac trans]
+28.4 +27.3 94 +45 +45 опасность
перегрева
1007.5 1006.7
03 21.09 штиль 0 4000 м 5/3 1000 м
[Sc diur, vesp Ac trans]
+31.0 +28.0 84 +51 +58 опасность
перегрева
1009.3 1008.5 +27.9
06 21.09 штиль 0 4000 м 8/4 1000 м
[Sc diur, vesp Ac trans]
+33.4 +28.8 77 +56 +66 опасность
перегрева
1008.4 1007.6
09 21.09 штиль 0 4000 м гроза, ливневой дождь 10/6 600 м
[Sc As op]
+26.4 +26.1 98 +39 +41 очень
душно
1006.2 1005.4 60
12 21.09 штиль 0 4000 м слаб. дождь {гроза} 10/6 600 м
[Sc As op]
+26.4 +26.1 98 +39 +39 очень
душно
1006.6 1005.8 +34.0 64
15 21.09 штиль 0 4000 м {дождь} 8/5 600 м
[Sc Ac trans]
+26.4 +26.1 98 +39 +39 очень
душно
1008.4 1007.6 65
18 21.09 штиль 0 4000 м 8/5 600 м
[Sc Ac trans]
+26.8 +25.9 95 +40 +40 очень
душно
1008.0 1007.2 65
21 21.09 штиль 0 4000 м 6/4 600 м
[Sc Ac trans]
+26.0 +25.4 97 +38 +38 очень
душно
1006.8 1006.0 65
00 22.09 штиль 0 4000 м 9/6 600 м
[Frnb As op]
+26.4 +26.1 98 +39 +39 очень
душно
1008.8 1008.0 65
03 22.09 штиль 0 4000 м 8/5 600 м
[Sc diur, vesp Ac trans]
+28.0 +27.4 97 +45 +49 опасность
перегрева
1010.9 1010.1 +25.6 65
06 22.09 штиль 0 4000 м 5/3 600 м
[Sc diur, vesp Ac trans]
+31.8 +27.7 79 +51 +66 опасность
перегрева
1009.8 1009.0
09 22.09 Ю 0 4000 м {гроза, дождь} 6/4 600 м
[Sc Ac trans]
+30.4 +26.8 81 +47 +54 опасность
перегрева
1007.0 1006.2 0.2
12 22.09 штиль 0 4000 м {гроза, дождь} 8/5 600 м
[Sc Ac trans]
+28.8 +26.3 86 +44 +44 опасность
перегрева
1006.7 1005.9 +34.2 0.2
15 22.09 штиль 0 4000 м 8/5 600 м
[Sc Ac trans]
+28.8 +27.7 94 +47 +47 опасность
перегрева
1010.4 1009.6 0.2
18 22.09 штиль 0 4000 м 9/6 600 м
[Sc Ac trans]
+28.6 +27.5 94 +46 +46 опасность
перегрева
1009.8 1009.0 0.2
21 22.09 штиль 0 4000 м 9/5 600 м
[Sc Ac trans]
+28.2 +27.4 95 +45 +45 опасность
перегрева
1008.2 1007.4 0.2

 

Местоположение метеостанции Даймонд Харбор (Западная Бенгалия, Индия): широта 22.18 долгота 88.20 высота над уровнем моря 7 м.

В архиве по умолчанию представлена погода в Даймонд Харбор за последнюю неделю. Архивные данные за месяц целиком и за предыдущие месяцы, начиная с января 2011 года, Вы можете получить, выбрав интересующий диапазон дат из раскрывающегося списка и нажав кнопку "Ввод!".


*Определитесь, кто Вы:
робот инопланетянин человек

Внимание! Время в таблицах - всемирное. Для получения местного времени необходимо прибавить поправку, которая равна 5.5 ч.

Смотрите также архив погоды в соседних городах и на ближайших метеорологических станциях:

Погода в Халдии (Западная Бенгалия, Индия) (23 км)
Погода в Колкате (Западная Бенгалия, Индия) (41 км)
Погода в Улуберии (Западная Бенгалия, Индия) (44 км)
Погода в Каннинге (Западная Бенгалия, Индия) (49 км)
Погода в Колкате (Западная Бенгалия, Индия) (58 км)
Погода в Контае (Западная Бенгалия, Индия) (64 км)
Погода в Бейсирхэте (Западная Бенгалия, Индия) (86 км)
Погода в Багати (Западная Бенгалия, Индия) (91 км)
Погода в Миднапуре (Западная Бенгалия, Индия) (94 км)
Погода в Диге (Западная Бенгалия, Индия) (95 км)

Пояснения к столбцам:

Ветер - указаны скорость ветра в м/с - средняя за 10 мин, порывы в срок и между сроками (в фигурных скобках) и направление, откуда дует ветер: С - северный, СВ - северо-восточный, В - восточный, ЮВ - юго-восточный, Ю - южный, ЮЗ - юго-западный, З - западный, СЗ - северо-западный.
Видимость - горизонтальная дальность видимости в метрах или километрах. При видимости от 1 до 10 км при отсутствии осадков обычно наблюдается дымка, при ухудшении видимости до 1 км и менее - туман. В сухую погоду видимость может ухудшаться дымом, пылью или мглою.
Явления - указаны атмосферные явления, наблюдавшиеся в срок или в последний час перед сроком; фигурными скобками обозначены явления, наблюдавшиеся между сроками (за 1-3 часа до срока); квадратными скобками обозначены град или гололедные отложения с указанием их диаметра в мм.
Облачность - указаны через наклонную черту общая и нижняя облачность в баллах и высота нижней границы облаков в метрах; квадратными скобками обозначены формы облаков: Ci - перистые, Cs - перисто-слоистые, Cc - перисто-кучевые, Ac - высококучевые, As - высокослоистые, Sc - слоисто-кучевые, Ns - слоисто-дождевые, Cu - кучевые, Cb - кучево-дождевые. Подробнее классификацию облаков см. в Атласе облаков (PDF).
T - Температура воздуха - температура, измеренная на высоте 2 м над землей.
Td - Температура точки росы - температура, при понижении до которой содержащийся в воздухе водяной пар достигнет насыщения.
f - Относительная влажность воздуха - влажноcть воздуха, измеренная на высоте 2 м над землей.
Te - Эффективная температура - температура, которую ощущает одетый по сезону человек в тени. Характеристика душности погоды. При расчете учитывается влияние влажности воздуха и скорости ветра на теплоощущения человека.
Tes - Эффективная температура на солнце - температура, которую ощущает человек, с поправкой на солнечный нагрев. Характеристика знойности погоды. Зависит от высоты солнца над горизонтом, облачности и скорости ветра. Ночью, в пасмурную погоду, а также при ветре 12 м/с и более поправка равна нулю.
P - Атмосферное давление - приведенное к уровню моря атмосферное давление.
Po - Атмосферное давление - измеренное на уровне метеостанции атмосферное давление.
Tmin - Минимальная температура - минимум температуры воздуха на высоте 2 м над землей.
Tmax - Максимальная температура - максимум температуры воздуха на высоте 2 м над землей.
R - Количество осадков - Количество выпавших осадков за период времени, мм. При наведении курсора мыши на число - период времени, за который выпало указанное количество осадков.
R24 - Количество осадков - Количество выпавших осадков за 24 часа, мм.
S - Снежный покров - Высота снежного покрова, см. При наведении курсора мыши на число - состояние снежного покрова и степень покрытия местности в баллах.